• en France
  • Liste des pays
  • À 7 jours
  • Température de l'eau
  • Carte satellitaire
  • Carte météo
  • Widgets météo
  • user-avatar
    Se connecter

    Météo par heure à Batna

    Ce jour, 19 Janvier, Vendredi

    Heure Température Précipitation Vent Pression Humidité
    00:00 +5°C° 0 mm 2 m/s 672 mmHg 78%
    01:00 +5°C° 0 mm 2 m/s 671 mmHg 79%
    02:00 +4°C° 0 mm 2 m/s 671 mmHg 79%
    03:00 +4°C° 0 mm 2 m/s 670 mmHg 80%
    04:00 +4°C° 0 mm 2 m/s 670 mmHg 78%
    05:00 +4°C° 0 mm 2 m/s 669 mmHg 76%
    06:00 +4°C° 0 mm 2 m/s 669 mmHg 74%
    07:00 +6°C° 0 mm 1 m/s 669 mmHg 64%
    08:00 +8°C° 0 mm 1 m/s 669 mmHg 55%
    09:00 +10°C° 0 mm 1 m/s 670 mmHg 46%
    10:00 +11°C° 0 mm 1 m/s 670 mmHg 43%
    11:00 +12°C° 0 mm 1 m/s 670 mmHg 39%
    12:00 +13°C° 0 mm 1 m/s 670 mmHg 36%
    13:00 +13°C° 0 mm 2 m/s 669 mmHg 36%
    14:00 +13°C° 0 mm 2 m/s 669 mmHg 36%
    15:00 +12°C° 0 mm 3 m/s 669 mmHg 36%
    16:00 +11°C° 0 mm 3 m/s 669 mmHg 43%
    17:00 +10°C° 0 mm 3 m/s 668 mmHg 50%
    18:00 +9°C° 0 mm 3 m/s 668 mmHg 57%
    19:00 +8°C° 0 mm 3 m/s 668 mmHg 64%
    20:00 +7°C° 0 mm 3 m/s 669 mmHg 72%
    21:00 +6°C° 0 mm 4 m/s 669 mmHg 79%
    22:00 +6°C° 0 mm 4 m/s 669 mmHg 80%
    23:00 +5°C° 0 mm 5 m/s 669 mmHg 81%

    Demain, 20 Janvier, Samedi

    Heure Température Précipitation Vent Pression Humidité
    00:00 +4°C° 0 mm 6 m/s 669 mmHg 81%
    01:00 +5°C° 0 mm 5 m/s 669 mmHg 81%
    02:00 +5°C° 0 mm 5 m/s 669 mmHg 81%
    03:00 +5°C° 0 mm 5 m/s 669 mmHg 80%
    04:00 +5°C° 0,2 mm 5 m/s 670 mmHg 81%
    05:00 +4°C° 0,2 mm 6 m/s 670 mmHg 82%
    06:00 +4°C° 0,2 mm 6 m/s 670 mmHg 83%
    07:00 +5°C° 0,3 mm 5 m/s 671 mmHg 80%
    08:00 +5°C° 0,3 mm 5 m/s 672 mmHg 78%
    09:00 +5°C° 0,3 mm 5 m/s 672 mmHg 76%
    10:00 +6°C° 0,1 mm 4 m/s 672 mmHg 72%
    11:00 +7°C° 0,1 mm 4 m/s 673 mmHg 68%
    12:00 +7°C° 0,1 mm 4 m/s 673 mmHg 64%
    13:00 +8°C° 0 mm 4 m/s 673 mmHg 62%
    14:00 +8°C° 0 mm 4 m/s 673 mmHg 61%
    15:00 +8°C° 0 mm 4 m/s 673 mmHg 60%
    16:00 +7°C° 0 mm 4 m/s 673 mmHg 64%
    17:00 +7°C° 0 mm 3 m/s 673 mmHg 69%
    18:00 +7°C° 0 mm 2 m/s 673 mmHg 74%
    19:00 +6°C° 0 mm 2 m/s 673 mmHg 76%
    20:00 +6°C° 0 mm 2 m/s 673 mmHg 79%
    21:00 +5°C° 0 mm 2 m/s 673 mmHg 82%
    22:00 +5°C° 0 mm 2 m/s 673 mmHg 81%
    23:00 +5°C° 0 mm 2 m/s 673 mmHg 81%

    Après-demain, 21 Janvier, Dimanche

    Heure Température Précipitation Vent Pression Humidité
    00:00 +4°C° 0 mm 2 m/s 673 mmHg 80%
    01:00 +4°C° 0 mm 2 m/s 673 mmHg 79%
    02:00 +4°C° 0 mm 2 m/s 673 mmHg 78%
    03:00 +4°C° 0 mm 2 m/s 672 mmHg 77%
    04:00 +4°C° 0 mm 2 m/s 672 mmHg 74%
    05:00 +4°C° 0 mm 2 m/s 672 mmHg 72%
    06:00 +4°C° 0 mm 2 m/s 673 mmHg 69%
    07:00 +5°C° 0 mm 2 m/s 673 mmHg 64%
    08:00 +7°C° 0 mm 2 m/s 674 mmHg 58%
    09:00 +9°C° 0 mm 2 m/s 675 mmHg 53%
    10:00 +10°C° 0 mm 3 m/s 675 mmHg 51%
    11:00 +11°C° 0 mm 3 m/s 675 mmHg 48%
    12:00 +13°C° 0 mm 4 m/s 675 mmHg 46%
    13:00 +13°C° 0 mm 4 m/s 675 mmHg 46%
    14:00 +13°C° 0 mm 4 m/s 675 mmHg 46%
    15:00 +13°C° 0 mm 4 m/s 675 mmHg 46%
    16:00 +12°C° 0 mm 3 m/s 675 mmHg 53%
    17:00 +12°C° 0 mm 2 m/s 675 mmHg 60%
    18:00 +9°C° 0 mm 2 m/s 674 mmHg 66%
    19:00 +9°C° 0 mm 2 m/s 675 mmHg 69%
    20:00 +8°C° 0 mm 2 m/s 675 mmHg 72%
    21:00 +8°C° 0 mm 2 m/s 675 mmHg 74%
    22:00 +7°C° 0 mm 2 m/s 675 mmHg 75%
    23:00 +7°C° 0 mm 2 m/s 675 mmHg 76%

    22 Janvier, Lundi

    Heure Température Précipitation Vent Pression Humidité
    00:00 +7°C° 0 mm 2 m/s 675 mmHg 78%
    01:00 +7°C° 0 mm 2 m/s 675 mmHg 78%
    02:00 +6°C° 0 mm 2 m/s 675 mmHg 78%
    03:00 +6°C° 0 mm 2 m/s 675 mmHg 79%
    04:00 +6°C° 0 mm 2 m/s 675 mmHg 79%
    05:00 +6°C° 0 mm 2 m/s 675 mmHg 79%
    06:00 +6°C° 0 mm 2 m/s 675 mmHg 79%
    07:00 +7°C° 0 mm 2 m/s 675 mmHg 72%
    08:00 +9°C° 0 mm 2 m/s 676 mmHg 66%
    09:00 +11°C° 0 mm 1 m/s 677 mmHg 59%
    10:00 +13°C° 0 mm 2 m/s 677 mmHg 55%
    11:00 +14°C° 0 mm 2 m/s 677 mmHg 50%
    12:00 +15°C° 0 mm 2 m/s 677 mmHg 46%
    13:00 +15°C° 0 mm 2 m/s 677 mmHg 44%
    14:00 +16°C° 0 mm 2 m/s 676 mmHg 43%
    15:00 +16°C° 0 mm 3 m/s 676 mmHg 42%
    16:00 +14°C° 0 mm 2 m/s 676 mmHg 47%
    17:00 +13°C° 0 mm 2 m/s 676 mmHg 53%
    18:00 +11°C° 0 mm 1 m/s 676 mmHg 59%
    19:00 +11°C° 0 mm 1 m/s 676 mmHg 62%
    20:00 +10°C° 0 mm 1 m/s 676 mmHg 65%
    21:00 +9°C° 0 mm 1 m/s 676 mmHg 68%
    22:00 +9°C° 0 mm 1 m/s 676 mmHg 70%
    23:00 +9°C° 0 mm 1 m/s 676 mmHg 72%

    23 Janvier, Mardi

    Heure Température Précipitation Vent Pression Humidité
    00:00 +8°C° 0 mm 1 m/s 675 mmHg 74%
    01:00 +8°C° 0 mm 1 m/s 675 mmHg 75%
    02:00 +8°C° 0 mm 1 m/s 675 mmHg 76%
    03:00 +7°C° 0 mm 1 m/s 675 mmHg 76%
    04:00 +7°C° 0 mm 1 m/s 675 mmHg 77%
    05:00 +7°C° 0 mm 1 m/s 675 mmHg 77%
    06:00 +6°C° 0 mm 2 m/s 675 mmHg 77%
    07:00 +7°C° 0 mm 2 m/s 676 mmHg 70%
    08:00 +9°C° 0 mm 2 m/s 676 mmHg 63%
    09:00 +10°C° 0 mm 2 m/s 677 mmHg 56%
    10:00 +12°C° 0 mm 2 m/s 677 mmHg 51%
    11:00 +13°C° 0 mm 2 m/s 677 mmHg 47%
    12:00 +14°C° 0 mm 2 m/s 677 mmHg 43%
    13:00 +15°C° 0 mm 2 m/s 677 mmHg 42%
    14:00 +14°C° 0 mm 3 m/s 677 mmHg 42%
    15:00 +14°C° 0 mm 3 m/s 677 mmHg 41%
    16:00 +13°C° 0 mm 3 m/s 677 mmHg 48%
    17:00 +12°C° 0 mm 2 m/s 677 mmHg 54%
    18:00 +10°C° 0 mm 2 m/s 677 mmHg 60%
    19:00 +9°C° 0 mm 2 m/s 677 mmHg 64%
    20:00 +8°C° 0 mm 2 m/s 677 mmHg 68%
    21:00 +8°C° 0 mm 2 m/s 677 mmHg 72%
    22:00 +7°C° 0 mm 2 m/s 677 mmHg 73%
    23:00 +8°C° 0 mm 1 m/s 676 mmHg 75%

    24 Janvier, Mercredi

    Heure Température Précipitation Vent Pression Humidité
    00:00 +8°C° 0 mm 1 m/s 676 mmHg 76%
    01:00 +7°C° 0 mm 1 m/s 676 mmHg 76%
    02:00 +7°C° 0 mm 1 m/s 676 mmHg 76%
    03:00 +7°C° 0 mm 1 m/s 676 mmHg 76%
    04:00 +6°C° 0 mm 1 m/s 676 mmHg 77%
    05:00 +6°C° 0 mm 1 m/s 676 mmHg 77%
    06:00 +6°C° 0 mm 1 m/s 676 mmHg 77%
    07:00 +8°C° 0 mm 1 m/s 676 mmHg 70%
    08:00 +9°C° 0 mm 1 m/s 677 mmHg 63%
    09:00 +11°C° 0 mm 1 m/s 678 mmHg 56%
    10:00 +12°C° 0 mm 1 m/s 678 mmHg 52%
    11:00 +13°C° 0 mm 1 m/s 678 mmHg 48%
    12:00 +14°C° 0 mm 1 m/s 678 mmHg 44%
    13:00 +14°C° 0 mm 1 m/s 678 mmHg 44%
    14:00 +14°C° 0 mm 2 m/s 677 mmHg 43%
    15:00 +14°C° 0 mm 2 m/s 677 mmHg 42%
    16:00 +13°C° 0 mm 2 m/s 677 mmHg 48%
    17:00 +12°C° 0 mm 1 m/s 677 mmHg 53%
    18:00 +11°C° 0 mm 1 m/s 677 mmHg 59%
    19:00 +10°C° 0 mm 1 m/s 677 mmHg 62%
    20:00 +9°C° 0 mm 1 m/s 676 mmHg 64%
    21:00 +9°C° 0 mm 1 m/s 676 mmHg 67%
    22:00 +8°C° 0 mm 1 m/s 676 mmHg 67%
    23:00 +8°C° 0 mm 1 m/s 676 mmHg 68%
    Voir plus